SAUDISAT 5B

Last updated on Thu Nov 21 2024 00:02:28 GMT+0000 (Coordinated Universal Time)

1 43833U 18102C 24325.50605392 .00008443 00000+0 39575-3 0 9999 2 43833 97.3947 29.6143 0012405 4.9075 355.2280 15.19868241328399
UTC large
Height (km)
Speed (km/s)
/
Latitude / Longitude
Inclination (degrees)
Orbital Period (minutes)
Azimuth
Elevation
Range (km)
Doppler Factor

Next 0 passes for location: London (51.5072 / 0.1276)

Sorry there are no passes over London.